TimeCDT,TemperatureF,Dew PointF,Humidity,Sea Level PressureIn,VisibilityMPH,Wind Direction,Wind SpeedMPH,Gust SpeedMPH,PrecipitationIn,Events,Conditions,WindDirDegrees,DateUTC
12:15 AM,80.6,62.6,54,29.85,10.0,Calm,Calm,-,N/A,,Clear,0,2013-06-29 05:15:00
12:35 AM,80.6,62.6,54,29.86,10.0,NNE,3.5,-,N/A,,Clear,20,2013-06-29 05:35:00
12:55 AM,78.8,62.6,57,29.86,10.0,Calm,Calm,-,N/A,,Clear,0,2013-06-29 05:55:00
1:15 AM,77.0,62.6,61,29.87,10.0,Calm,Calm,-,N/A,,Clear,0,2013-06-29 06:15:00
1:35 AM,73.4,62.6,69,29.87,10.0,Calm,Calm,-,N/A,,Clear,0,2013-06-29 06:35:00
1:55 AM,71.6,64.4,78,29.88,10.0,Calm,Calm,-,N/A,,Clear,0,2013-06-29 06:55:00
2:15 AM,71.6,64.4,78,29.88,10.0,Calm,Calm,-,N/A,,Clear,0,2013-06-29 07:15:00
2:35 AM,71.6,64.4,78,29.88,10.0,Calm,Calm,-,N/A,,Clear,0,2013-06-29 07:35:00
2:55 AM,68.0,64.4,88,29.89,10.0,Calm,Calm,-,N/A,,Clear,0,2013-06-29 07:55:00
3:15 AM,69.8,64.4,83,29.89,10.0,Calm,Calm,-,N/A,,Clear,0,2013-06-29 08:15:00
3:35 AM,69.8,62.6,78,29.89,10.0,Calm,Calm,-,N/A,,Clear,0,2013-06-29 08:35:00
3:55 AM,68.0,62.6,83,29.89,10.0,Calm,Calm,-,N/A,,Clear,0,2013-06-29 08:55:00
4:15 AM,68.0,66.2,94,29.89,10.0,Calm,Calm,-,N/A,,Clear,0,2013-06-29 09:15:00
4:35 AM,68.0,68.0,100,29.89,10.0,Calm,Calm,-,N/A,,Clear,0,2013-06-29 09:35:00
4:55 AM,68.0,64.4,88,29.89,10.0,Calm,Calm,-,N/A,,Clear,0,2013-06-29 09:55:00
5:15 AM,66.2,64.4,94,29.89,10.0,Calm,Calm,-,N/A,,Clear,0,2013-06-29 10:15:00
5:35 AM,68.0,62.6,83,29.89,10.0,Calm,Calm,-,N/A,,Clear,0,2013-06-29 10:35:00
5:55 AM,66.2,62.6,88,29.89,10.0,Calm,Calm,-,N/A,,Clear,0,2013-06-29 10:55:00
6:15 AM,64.4,64.4,100,29.89,10.0,Calm,Calm,-,N/A,,Clear,0,2013-06-29 11:15:00
6:35 AM,64.4,64.4,100,29.89,10.0,Calm,Calm,-,N/A,,Clear,0,2013-06-29 11:35:00
6:55 AM,66.2,64.4,94,29.89,10.0,Calm,Calm,-,N/A,,Clear,0,2013-06-29 11:55:00
7:15 AM,68.0,64.4,88,29.89,10.0,Calm,Calm,-,N/A,,Clear,0,2013-06-29 12:15:00
7:35 AM,69.8,62.6,78,29.89,10.0,Calm,Calm,-,N/A,,Clear,0,2013-06-29 12:35:00
7:55 AM,71.6,62.6,73,29.90,10.0,WNW,4.6,-,N/A,,Clear,300,2013-06-29 12:55:00
8:15 AM,73.4,62.6,69,29.90,10.0,WNW,4.6,-,N/A,,Clear,300,2013-06-29 13:15:00
8:35 AM,75.2,62.6,65,29.90,10.0,WNW,5.8,-,N/A,,Clear,290,2013-06-29 13:35:00
8:55 AM,77.0,62.6,61,29.91,10.0,WNW,6.9,-,N/A,,Clear,300,2013-06-29 13:55:00
9:15 AM,78.8,62.6,57,29.90,10.0,NW,8.1,-,N/A,,Clear,310,2013-06-29 14:15:00
9:35 AM,78.8,62.6,57,29.90,10.0,NNW,8.1,-,N/A,,Clear,330,2013-06-29 14:35:00
9:55 AM,80.6,60.8,51,29.90,10.0,NNW,9.2,-,N/A,,Clear,340,2013-06-29 14:55:00
10:15 AM,82.4,59.0,45,29.90,10.0,NNW,9.2,-,N/A,,Clear,330,2013-06-29 15:15:00
10:35 AM,82.4,59.0,45,29.89,10.0,North,10.4,-,N/A,,Clear,350,2013-06-29 15:35:00
10:55 AM,82.4,55.4,39,29.90,10.0,NNW,12.7,16.1,N/A,,Clear,330,2013-06-29 15:55:00
11:15 AM,84.2,55.4,37,29.90,10.0,North,6.9,-,N/A,,Clear,360,2013-06-29 16:15:00
11:35 AM,86.0,53.6,33,29.90,10.0,NNW,16.1,20.7,N/A,,Clear,340,2013-06-29 16:35:00
11:55 AM,86.0,53.6,33,29.89,10.0,NNW,11.5,17.3,N/A,,Clear,340,2013-06-29 16:55:00
12:15 PM,86.0,55.4,35,29.89,10.0,North,5.8,-,N/A,,Clear,350,2013-06-29 17:15:00
12:35 PM,86.0,55.4,35,29.88,10.0,NW,12.7,17.3,N/A,,Clear,320,2013-06-29 17:35:00
12:55 PM,87.8,51.8,29,29.87,10.0,NW,15.0,20.7,N/A,,Clear,320,2013-06-29 17:55:00
1:15 PM,87.8,53.6,31,29.87,10.0,NNW,17.3,24.2,N/A,,Clear,330,2013-06-29 18:15:00
1:35 PM,87.8,53.6,31,29.87,10.0,NNW,11.5,24.2,N/A,,Clear,340,2013-06-29 18:35:00
1:55 PM,87.8,53.6,31,29.87,10.0,NW,10.4,20.7,N/A,,Clear,320,2013-06-29 18:55:00
2:15 PM,87.8,51.8,29,29.86,10.0,NNW,13.8,20.7,N/A,,Clear,340,2013-06-29 19:15:00
2:35 PM,87.8,51.8,29,29.85,10.0,NNW,11.5,23.0,N/A,,Clear,340,2013-06-29 19:35:00
2:55 PM,87.8,51.8,29,29.85,10.0,NNW,17.3,23.0,N/A,,Clear,330,2013-06-29 19:55:00
3:15 PM,89.6,51.8,27,29.84,10.0,North,10.4,25.3,N/A,,Clear,360,2013-06-29 20:15:00
3:35 PM,89.6,50.0,26,29.85,10.0,NNW,15.0,-,N/A,,Clear,330,2013-06-29 20:35:00
3:55 PM,89.6,51.8,27,29.84,10.0,NW,18.4,-,N/A,,Clear,320,2013-06-29 20:55:00
4:15 PM,89.6,51.8,27,29.84,10.0,North,12.7,-,N/A,,Clear,360,2013-06-29 21:15:00
4:35 PM,89.6,51.8,27,29.83,10.0,NW,15.0,20.7,N/A,,Clear,320,2013-06-29 21:35:00
4:55 PM,89.6,51.8,27,29.83,10.0,North,12.7,16.1,N/A,,Clear,350,2013-06-29 21:55:00
5:15 PM,87.8,51.8,29,29.82,10.0,NW,9.2,-,N/A,,Clear,320,2013-06-29 22:15:00
5:35 PM,87.8,51.8,29,29.82,10.0,North,11.5,16.1,N/A,,Clear,350,2013-06-29 22:35:00
5:55 PM,89.6,51.8,27,29.81,10.0,NNW,9.2,19.6,N/A,,Clear,340,2013-06-29 22:55:00
6:15 PM,87.8,51.8,29,29.80,10.0,NNW,11.5,20.7,N/A,,Clear,340,2013-06-29 23:15:00
6:35 PM,87.8,51.8,29,29.80,10.0,North,6.9,18.4,N/A,,Clear,350,2013-06-29 23:35:00
6:55 PM,87.8,51.8,29,29.80,10.0,NNW,9.2,-,N/A,,Clear,340,2013-06-29 23:55:00
7:15 PM,87.8,51.8,29,29.81,10.0,NNW,10.4,-,N/A,,Clear,330,2013-06-30 00:15:00
7:35 PM,86.0,51.8,31,29.81,10.0,NNW,8.1,-,N/A,,Clear,340,2013-06-30 00:35:00
7:55 PM,86.0,51.8,31,29.81,10.0,North,4.6,-,N/A,,Clear,360,2013-06-30 00:55:00
8:15 PM,84.2,53.6,35,29.81,10.0,Calm,Calm,-,N/A,,Clear,0,2013-06-30 01:15:00
8:35 PM,82.4,53.6,37,29.81,10.0,North,3.5,-,N/A,,Clear,360,2013-06-30 01:35:00
8:55 PM,80.6,55.4,42,29.81,10.0,North,3.5,-,N/A,,Clear,360,2013-06-30 01:55:00
9:15 PM,80.6,55.4,42,29.82,10.0,Calm,Calm,-,N/A,,Clear,0,2013-06-30 02:15:00
9:35 PM,78.8,55.4,44,29.82,10.0,Calm,Calm,-,N/A,,Clear,0,2013-06-30 02:35:00
9:55 PM,78.8,55.4,44,29.83,10.0,Calm,Calm,-,N/A,,Clear,0,2013-06-30 02:55:00
10:15 PM,75.2,57.2,53,29.84,10.0,Calm,Calm,-,N/A,,Clear,0,2013-06-30 03:15:00
10:35 PM,71.6,57.2,60,29.84,10.0,Calm,Calm,-,N/A,,Clear,0,2013-06-30 03:35:00
10:55 PM,73.4,59.0,61,29.84,10.0,Calm,Calm,-,N/A,,Clear,0,2013-06-30 03:55:00
11:15 PM,71.6,59.0,64,29.84,10.0,Calm,Calm,-,N/A,,Clear,0,2013-06-30 04:15:00
11:35 PM,68.0,60.8,78,29.84,10.0,Calm,Calm,-,N/A,,Clear,0,2013-06-30 04:35:00
11:55 PM,66.2,60.8,83,29.84,10.0,Calm,Calm,-,N/A,,Clear,0,2013-06-30 04:55:00